Mackall AAF, NC

3:24 AM EDT on March 29, 2017 (GMT -0400)
Mackall Army Air Field

Weather History for KHFF - August, 2013

Change the Weather History Date:

Thursday, August 22, 2013

  Actual Average Record
Temperature  
Mean Temperature 78 °F -  
Max Temperature 89 °F 86 °F 99 °F (2007)
Min Temperature 69 °F 69 °F 64 °F (2001)
Cooling Degree Days 14    
Growing Degree Days 28 (Base 50)    
Moisture  
Dew Point 70 °F    
Average Humidity 86    
Maximum Humidity 100    
Minimum Humidity 51    
Precipitation  
Precipitation 0.01 in - - ()
Sea Level Pressure  
Sea Level Pressure 30.13 in    
Wind  
Wind Speed 3 mph (West)    
Max Wind Speed 12 mph    
Max Gust Speed 17 mph    
Visibility 6 miles    
Events Fog    
Averages and records for this station are not official NWS values.
T = Trace of Precipitation, MM = Missing Value Source: NWS Daily Summary

Daily Weather History Graph

Daily Weather History Graph

Search for Another Location

Airport or City:

Trip Planner

Search our weather history database for the weather conditions in past years. The results will help you decide how hot, cold, wet, or windy it might be!

Date:

Astronomy

Aug. 22, 2013 Rise Set
Actual Time 6:43 AM EDT 7:57 PM EDT
Civil Twilight 6:17 AM EDT 8:23 PM EDT
Nautical Twilight 5:45 AM EDT 8:55 PM EDT
Astronomical Twilight 5:12 AM EDT 9:27 PM EDT
Moon 8:48 PM EDT (8/22) 8:23 AM EDT (8/22)
Length of Visible Light 14h 06m
Length of Day
13h 14m
Waning Gibbous, 97% of the Moon is Illuminated
Aug 22
Waning Gibbous
Aug 28
Last Quarter
Sep 5
New
Sep 12
First Quarter
Sep 19
Full

Hourly Weather History & Observations

Time (EDT) Temp. Heat Index Dew Point Humidity Pressure Visibility Wind Dir Wind Speed Gust Speed Precip Events Conditions
12:56 AM 70.9 °F - 69.8 °F 96% 30.16 in 8.0 mi Calm Calm - N/A   Partly Cloudy
1:56 AM 70.3 °F - 69.1 °F 96% 30.16 in 7.0 mi SSE 1.2 mph - N/A   Scattered Clouds
2:56 AM 70.2 °F - 69.1 °F 96% 30.16 in 6.0 mi SSE 2.3 mph - N/A   Partly Cloudy
3:30 AM 69.8 °F - 68.0 °F 94% 30.16 in 5.0 mi SSE 3.5 mph - N/A   Partly Cloudy
3:56 AM 70.3 °F - 69.3 °F 96% 30.15 in 7.0 mi Variable 1.2 mph - N/A   Partly Cloudy
4:22 AM 69.8 °F - 68.0 °F 94% 30.15 in 1.0 mi NNW 3.5 mph - N/A Fog Fog
4:27 AM 69.8 °F - 68.0 °F 94% 30.15 in 0.6 mi NNW 2.3 mph - N/A Fog Fog
4:56 AM 70.2 °F - 69.1 °F 96% 30.15 in 0.4 mi NNW 2.3 mph - N/A Fog Fog
5:32 AM 71.6 °F - 69.8 °F 94% 30.14 in 1.0 mi South 2.3 mph - N/A Fog Fog
5:38 AM 71.6 °F - 69.8 °F 94% 30.15 in 1.1 mi SSW 2.3 mph - N/A Fog Fog
5:43 AM 71.6 °F - 69.8 °F 94% 30.14 in 1.6 mi Variable 2.3 mph - N/A   Mostly Cloudy
5:48 AM 71.6 °F - 69.8 °F 94% 30.15 in 2.8 mi NW 1.2 mph - N/A   Overcast
5:54 AM 71.6 °F - 69.8 °F 94% 30.14 in 4.0 mi NW 1.2 mph - N/A   Overcast
5:56 AM 71.1 °F - 70.0 °F 96% 30.14 in 4.0 mi NW 2.3 mph - N/A   Overcast
6:06 AM 71.6 °F - 69.8 °F 94% 30.14 in 2.8 mi Calm Calm - N/A   Overcast
6:11 AM 71.6 °F - 69.8 °F 94% 30.15 in 3.0 mi NW 1.2 mph - N/A   Overcast
6:17 AM 71.6 °F - 69.8 °F 94% 30.15 in 2.5 mi NW 2.3 mph - N/A   Overcast
6:22 AM 71.6 °F - 69.8 °F 94% 30.14 in 1.4 mi NW 2.3 mph - N/A   Mostly Cloudy
6:27 AM 71.6 °F - 69.8 °F 94% 30.14 in 0.8 mi Variable 1.2 mph - N/A Fog Fog
6:43 AM 71.6 °F - 69.8 °F 94% 30.15 in 0.2 mi WNW 3.5 mph - N/A Fog Fog
6:48 AM 71.6 °F - 69.8 °F 94% 30.16 in 0.2 mi WNW 4.6 mph - N/A Fog Fog
6:56 AM 71.2 °F - 70.2 °F 96% 30.15 in 0.2 mi West 2.3 mph - N/A Fog Fog
7:01 AM 71.6 °F - 69.8 °F 94% 30.15 in 0.2 mi NW 2.3 mph - N/A Fog Fog
7:43 AM 71.6 °F - 69.8 °F 94% 30.16 in 1.1 mi Variable 1.2 mph - N/A   Mostly Cloudy
7:48 AM 71.6 °F - 69.8 °F 94% 30.16 in 2.5 mi SSE 1.2 mph - N/A   Mostly Cloudy
7:53 AM 71.6 °F - 71.6 °F 100% 30.16 in 4.0 mi SSE 2.3 mph - N/A   Mostly Cloudy
7:56 AM 71.8 °F - 70.9 °F 97% 30.16 in 4.0 mi South 2.3 mph - 0.01 in   Mostly Cloudy
8:11 AM 71.6 °F - 71.6 °F 100% 30.16 in 5.0 mi Variable 2.3 mph - N/A   Mostly Cloudy
8:56 AM 73.8 °F - 72.7 °F 96% 30.17 in 12.0 mi West 3.5 mph - N/A   Scattered Clouds
9:56 AM 77.0 °F - 72.5 °F 86% 30.17 in 12.0 mi WSW 6.9 mph - N/A   Scattered Clouds
10:56 AM 83.1 °F 87.8 °F 71.2 °F 67% 30.16 in 12.0 mi WNW 8.1 mph - N/A   Clear
11:56 AM 84.9 °F 89.1 °F 69.8 °F 60% 30.15 in 12.0 mi WNW 11.5 mph 17.3 mph N/A   Scattered Clouds
12:56 PM 85.5 °F 90.4 °F 70.7 °F 61% 30.13 in 12.0 mi WNW 8.1 mph 16.1 mph N/A   Scattered Clouds
1:56 PM 87.3 °F 92.4 °F 70.5 °F 57% 30.11 in 12.0 mi WSW 8.1 mph - N/A   Scattered Clouds
2:56 PM 88.7 °F 93.5 °F 69.4 °F 53% 30.08 in 12.0 mi WNW 8.1 mph - N/A   Partly Cloudy
3:56 PM 88.7 °F 93.9 °F 70.2 °F 54% 30.05 in 12.0 mi NW 5.8 mph - N/A   Scattered Clouds
4:56 PM 88.5 °F 92.3 °F 68.5 °F 51% 30.04 in 12.0 mi NW 6.9 mph - N/A   Clear
5:56 PM 86.7 °F 91.0 °F 69.3 °F 56% 30.03 in 12.0 mi WNW 3.5 mph - N/A   Clear
6:56 PM 85.1 °F 89.8 °F 70.5 °F 61% 30.03 in 12.0 mi West 3.5 mph - N/A   Clear
7:56 PM 80.1 °F 85.1 °F 75.0 °F 85% 30.05 in 12.0 mi SSE 2.3 mph - N/A   Clear
8:56 PM 77.5 °F - 71.2 °F 81% 30.07 in 12.0 mi South 10.4 mph - N/A   Mostly Cloudy
9:56 PM 76.1 °F - 70.7 °F 83% 30.09 in 12.0 mi SW 10.4 mph - N/A   Scattered Clouds
10:56 PM 74.5 °F - 70.7 °F 88% 30.07 in 12.0 mi West 4.6 mph - N/A   Clear
11:56 PM 75.0 °F - 70.0 °F 84% 30.06 in 12.0 mi West 6.9 mph - N/A   Mostly Cloudy